Location: Unspecified
(0.0000°N, 0.0000°E)
Time: 13:08:21
(UTC+02:00)

Cosmos 1733 Rocket - Visible Passes

Search period start: 25 May 2018 00:00
Search period end: 04 June 2018 00:00
Orbit: 602 x 629 km, 82.5° (Epoch: 24 May)

Date Brightness Start Highest point End Pass type
(mag) Time Alt. Az. Time Alt. Az. Time Alt. Az.
27 May 5.0 20:16:30 10° NNW 20:20:24 33° W 20:24:21 10° SSW visible
28 May 6.1 06:49:03 10° SE 06:51:13 13° E 06:53:22 10° ENE visible
28 May 6.0 20:34:12 10° WNW 20:36:46 15° W 20:39:19 10° SW visible
29 May 5.2 07:03:45 10° SSE 07:07:34 29° E 07:11:20 10° NNE visible
30 May 3.5 07:19:32 10° S 07:23:55 67° E 07:28:13 10° N visible
01 Jun 6.1 06:17:08 10° ESE 06:19:03 13° E 06:20:58 10° ENE visible
02 Jun 5.1 06:31:41 10° SSE 06:35:25 27° E 06:39:06 10° NE visible
03 Jun 3.5 06:47:25 10° S 06:51:46 63° E 06:56:02 10° NNE visible
